Simultaneous Nadir Overpasses (SNOs) Predictions

Prediction of SNOs near US between AQUA and NPP Satellite Orbit:

Table of predicted SNOs near US for the next 10.0 days since TLE Epoch: 3/6/2020
Index Date (AQUA) Time (AQUA) AQUA Lat,Lon Date (NPP) Time (NPP) NPP Lat,Lon Distance(km) Time Diff (sec)
1 03/08/2020 06:31:04 44.74, -65.64 03/08/2020 06:30:35 45.09, -67.66 164.45 29
2 03/08/2020 08:08:30 49.90, -88.35 03/08/2020 08:10:33 50.39, -90.83 184.79 123
3 03/08/2020 09:47:23 49.91,-113.07 03/08/2020 09:52:01 50.50,-116.16 229.25 278
4 03/10/2020 19:06:37 49.97, -92.56 03/10/2020 19:00:50 49.67, -94.41 136.87 347
5 03/10/2020 20:45:30 49.97,-117.28 03/10/2020 20:42:18 49.56,-119.73 182.16 192
6 03/16/2020 07:18:58 49.93, -75.95 03/16/2020 07:19:50 50.37, -78.17 164.83 52
7 03/16/2020 08:57:51 49.94,-100.67 03/16/2020 09:01:18 50.48,-103.49 209.32 207




NCC Satellite Simultaneous Nadir Overpasses (SNOs) Prediction Service
